KZR118 UATE-UAAA

Flight info

Callsign KZR118
Flight time N/A
Altitude 33000
Route ULSON1K ULSON N154 MNK T916 ERTUZ/K0830F350 T916 TUROK L855 TIPSA TIPSA1D
Aircraft A321/M-SDE3FGHIRWY/LB1

Departure

Time N/A
Airport Aktau International Airport (UATE)

Arrival

Time 2026-04-20 15:33
Airport Almaty International Airport (UAAA)
Time Latitude Longitude Altitude Speed Heading
2026-04-20 14:36 44.33190 68.08646 34951 ft 486 kts 86°
2026-04-20 14:36 44.33427 68.13358 34953 ft 486 kts 86°
2026-04-20 14:36 44.33901 68.22779 34950 ft 486 kts 86°
2026-04-20 14:37 44.34368 68.32206 34951 ft 487 kts 86°
2026-04-20 14:37 44.34823 68.41653 34953 ft 487 kts 86°
2026-04-20 14:38 44.35263 68.51113 34957 ft 488 kts 86°
2026-04-20 14:38 44.35690 68.60530 34958 ft 488 kts 86°
2026-04-20 14:39 44.36117 68.69994 34956 ft 488 kts 86°
2026-04-20 14:39 44.36540 68.79463 34962 ft 488 kts 86°
2026-04-20 14:40 44.36937 68.88927 34965 ft 488 kts 90°
2026-04-20 14:40 44.36220 68.98313 34964 ft 486 kts 101°
2026-04-20 14:41 44.35099 69.07638 34966 ft 486 kts 100°
2026-04-20 14:41 44.33996 69.16952 34968 ft 486 kts 100°
2026-04-20 14:42 44.32885 69.26273 34967 ft 486 kts 100°
2026-04-20 14:42 44.31759 69.35582 34967 ft 486 kts 100°
2026-04-20 14:43 44.30617 69.44879 34974 ft 486 kts 100°
2026-04-20 14:43 44.29465 69.54176 34976 ft 486 kts 100°
2026-04-20 14:44 44.28311 69.63401 34973 ft 485 kts 100°
2026-04-20 14:44 44.27151 69.72672 34974 ft 485 kts 100°
2026-04-20 14:45 44.25989 69.81941 34980 ft 485 kts 100°
2026-04-20 14:45 44.24817 69.91192 34988 ft 484 kts 100°
2026-04-20 14:46 44.23638 70.00430 34982 ft 484 kts 100°
2026-04-20 14:46 44.22458 70.09665 34985 ft 483 kts 100°
2026-04-20 14:47 44.21270 70.18882 34984 ft 483 kts 100°
2026-04-20 14:48 44.19471 70.32691 34985 ft 483 kts 100°
2026-04-20 14:48 44.18262 70.41890 34986 ft 482 kts 100°
2026-04-20 14:49 44.17047 70.51079 34986 ft 483 kts 100°
2026-04-20 14:49 44.15837 70.60270 34988 ft 483 kts 100°
2026-04-20 14:50 44.14617 70.69461 34985 ft 483 kts 100°
2026-04-20 14:50 44.13382 70.78650 34986 ft 483 kts 101°
2026-04-20 14:51 44.12152 70.87786 34989 ft 483 kts 101°
2026-04-20 14:51 44.10902 70.96980 34988 ft 483 kts 101°
2026-04-20 14:52 44.09653 71.06162 34988 ft 483 kts 101°
2026-04-20 14:52 44.08395 71.15349 34991 ft 483 kts 101°
2026-04-20 14:53 44.07126 71.24536 34990 ft 483 kts 101°
2026-04-20 14:53 44.05853 71.33712 34994 ft 483 kts 101°
2026-04-20 14:54 44.04572 71.42889 34992 ft 483 kts 101°
2026-04-20 14:54 44.03281 71.52057 34996 ft 483 kts 101°
2026-04-20 14:55 44.01984 71.61213 35000 ft 483 kts 101°
2026-04-20 14:55 44.00683 71.70367 34999 ft 483 kts 101°
2026-04-20 14:56 43.99388 71.79465 35001 ft 483 kts 101°
2026-04-20 14:56 43.98153 71.88624 35007 ft 482 kts 95°
2026-04-20 14:57 43.97684 71.97897 35007 ft 482 kts 93°
2026-04-20 14:57 43.97230 72.07179 35006 ft 481 kts 93°
2026-04-20 14:58 43.96760 72.16450 35012 ft 481 kts 93°
2026-04-20 14:58 43.96278 72.25713 35010 ft 481 kts 93°
2026-04-20 14:59 43.95790 72.34961 35013 ft 480 kts 93°
2026-04-20 14:59 43.95312 72.44205 35014 ft 480 kts 93°
2026-04-20 15:00 43.94826 72.53427 35016 ft 479 kts 93°
2026-04-20 15:00 43.94316 72.62650 35014 ft 479 kts 93°
2026-04-20 15:01 43.93800 72.71858 35012 ft 479 kts 93°
2026-04-20 15:01 43.93285 72.81064 35015 ft 478 kts 93°
2026-04-20 15:02 43.92765 72.90255 35012 ft 478 kts 92°
2026-04-20 15:02 43.92237 72.99452 35014 ft 478 kts 92°
2026-04-20 15:03 43.91697 73.08652 35013 ft 478 kts 92°
2026-04-20 15:03 43.91143 73.17849 35008 ft 479 kts 92°
2026-04-20 15:04 43.90585 73.27042 35010 ft 479 kts 92°
2026-04-20 15:04 43.90026 73.36193 35016 ft 480 kts 92°
2026-04-20 15:05 43.89459 73.45421 35012 ft 480 kts 92°
2026-04-20 15:05 43.89010 73.52612 35012 ft 480 kts 92°
2026-04-20 15:06 43.88423 73.61835 35016 ft 480 kts 93°
2026-04-20 15:06 43.87831 73.71057 35019 ft 480 kts 92°
2026-04-20 15:07 43.87241 73.80279 35019 ft 480 kts 92°
2026-04-20 15:07 43.86629 73.89502 35026 ft 480 kts 92°
2026-04-20 15:08 43.86012 73.98712 35029 ft 480 kts 92°
2026-04-20 15:08 43.85398 74.07912 35038 ft 480 kts 92°
2026-04-20 15:09 43.84876 74.15563 35039 ft 480 kts 92°
2026-04-20 15:09 43.84235 74.24765 35041 ft 479 kts 92°
2026-04-20 15:10 43.83106 74.35392 35046 ft 482 kts 100°
2026-04-20 15:10 43.81883 74.42982 35048 ft 482 kts 100°
2026-04-20 15:11 43.80428 74.52027 35046 ft 482 kts 99°
2026-04-20 15:11 43.78960 74.61080 35045 ft 482 kts 99°
2026-04-20 15:12 43.77481 74.70148 35051 ft 483 kts 99°
2026-04-20 15:12 43.75994 74.79220 35057 ft 484 kts 99°
2026-04-20 15:13 43.74508 74.88225 34349 ft 482 kts 99°
2026-04-20 15:13 43.73758 74.92735 32967 ft 481 kts 99°
2026-04-20 15:13 43.73006 74.97240 31471 ft 482 kts 99°
2026-04-20 15:13 43.72253 75.01747 30216 ft 479 kts 99°
2026-04-20 15:14 43.71508 75.06202 28954 ft 472 kts 99°
2026-04-20 15:14 43.70775 75.10577 27804 ft 462 kts 99°
2026-04-20 15:14 43.70054 75.14857 26718 ft 453 kts 99°
2026-04-20 15:14 43.69346 75.19052 25747 ft 442 kts 99°
2026-04-20 15:15 43.68661 75.23106 25449 ft 426 kts 99°
2026-04-20 15:15 43.67993 75.27063 25044 ft 420 kts 99°
2026-04-20 15:15 43.67326 75.30976 24618 ft 416 kts 101°
2026-04-20 15:15 43.66371 75.34695 24507 ft 405 kts 108°
2026-04-20 15:16 43.65357 75.38245 24427 ft 391 kts 108°
2026-04-20 15:16 43.64380 75.41683 24272 ft 380 kts 107°
2026-04-20 15:16 43.63416 75.45088 23894 ft 380 kts 107°
2026-04-20 15:16 43.62457 75.48474 23475 ft 378 kts 107°
2026-04-20 15:17 43.61502 75.51838 23036 ft 375 kts 108°
2026-04-20 15:17 43.60552 75.55175 22636 ft 372 kts 108°
2026-04-20 15:17 43.59607 75.58481 22221 ft 370 kts 108°
2026-04-20 15:17 43.58663 75.61768 21801 ft 367 kts 108°
2026-04-20 15:18 43.57726 75.65030 21388 ft 364 kts 108°
2026-04-20 15:18 43.56796 75.68268 20966 ft 362 kts 108°
2026-04-20 15:18 43.55881 75.71448 20550 ft 360 kts 108°
2026-04-20 15:18 43.54962 75.74642 20127 ft 358 kts 108°
2026-04-20 15:19 43.54047 75.77820 19687 ft 355 kts 109°
2026-04-20 15:19 43.53134 75.80977 19273 ft 353 kts 109°
2026-04-20 15:19 43.52225 75.84110 18845 ft 351 kts 109°
2026-04-20 15:19 43.51318 75.87234 18417 ft 350 kts 109°
2026-04-20 15:20 43.50415 75.90339 17949 ft 348 kts 109°
2026-04-20 15:20 43.49518 75.93414 17519 ft 345 kts 109°
2026-04-20 15:20 43.48629 75.96470 17096 ft 342 kts 109°
2026-04-20 15:20 43.47751 75.99500 16680 ft 339 kts 110°
2026-04-20 15:21 43.46878 76.02503 16270 ft 337 kts 110°
2026-04-20 15:21 43.46009 76.05491 15847 ft 335 kts 110°
2026-04-20 15:21 43.45145 76.08456 15432 ft 333 kts 110°
2026-04-20 15:21 43.44283 76.11406 15019 ft 331 kts 111°
2026-04-20 15:22 43.43424 76.14339 14610 ft 329 kts 111°
2026-04-20 15:22 43.42568 76.17254 14201 ft 328 kts 111°
2026-04-20 15:22 43.41716 76.20158 13776 ft 327 kts 112°
2026-04-20 15:22 43.40868 76.23047 13346 ft 324 kts 112°
2026-04-20 15:23 43.40038 76.25870 12948 ft 322 kts 112°
2026-04-20 15:23 43.39201 76.28716 12551 ft 319 kts 112°
2026-04-20 15:23 43.38370 76.31537 12163 ft 317 kts 112°
2026-04-20 15:23 43.37543 76.34336 11750 ft 315 kts 113°
2026-04-20 15:24 43.36719 76.37123 11297 ft 315 kts 113°
2026-04-20 15:24 43.35896 76.39907 10901 ft 313 kts 114°
2026-04-20 15:24 43.35077 76.42672 10514 ft 311 kts 114°
2026-04-20 15:24 43.34266 76.45411 10182 ft 307 kts 114°
2026-04-20 15:25 43.33470 76.48104 9941 ft 302 kts 114°
2026-04-20 15:25 43.32677 76.50776 9807 ft 301 kts 114°
2026-04-20 15:25 43.31896 76.53396 9592 ft 301 kts 114°
2026-04-20 15:25 43.31097 76.56061 9176 ft 300 kts 114°
2026-04-20 15:26 43.30311 76.58692 8830 ft 296 kts 114°
2026-04-20 15:26 43.29537 76.61291 8286 ft 291 kts 113°
2026-04-20 15:26 43.28776 76.63849 7586 ft 287 kts 113°
2026-04-20 15:26 43.28029 76.66354 7040 ft 282 kts 113°
2026-04-20 15:27 43.27282 76.68847 6658 ft 281 kts 113°
2026-04-20 15:27 43.26546 76.71302 6335 ft 273 kts 112°
2026-04-20 15:27 43.25850 76.73631 6140 ft 253 kts 112°
2026-04-20 15:27 43.25197 76.75814 6030 ft 243 kts 112°
2026-04-20 15:28 43.24574 76.77894 5933 ft 232 kts 112°
2026-04-20 15:28 43.24390 76.78543 5910 ft 231 kts 108°
2026-04-20 15:29 43.24187 76.80343 5828 ft 231 kts 88°
2026-04-20 15:29 43.24557 76.82462 5585 ft 230 kts 63°
2026-04-20 15:29 43.25422 76.84284 5276 ft 226 kts 56°
2026-04-20 15:29 43.26284 76.85999 4995 ft 214 kts 56°
2026-04-20 15:30 43.27081 76.87592 4716 ft 192 kts 56°
2026-04-20 15:30 43.27796 76.89025 4463 ft 172 kts 56°
2026-04-20 15:30 43.28445 76.90327 4228 ft 160 kts 56°
2026-04-20 15:30 43.29063 76.91569 4006 ft 156 kts 56°
2026-04-20 15:31 43.29669 76.92785 3803 ft 153 kts 56°
2026-04-20 15:31 43.30270 76.93993 3581 ft 153 kts 56°
2026-04-20 15:31 43.30870 76.95199 3392 ft 153 kts 56°
2026-04-20 15:31 43.31468 76.96399 3181 ft 152 kts 56°
2026-04-20 15:32 43.32059 76.97592 2983 ft 150 kts 57°
2026-04-20 15:32 43.32647 76.98779 2800 ft 150 kts 57°
2026-04-20 15:32 43.33236 76.99966 2566 ft 150 kts 57°
2026-04-20 15:32 43.33829 77.01159 2373 ft 151 kts 57°
2026-04-20 15:33 43.34416 77.02351 2233 ft 145 kts 57°
2026-04-20 15:33 43.34907 77.03323 2224 ft 100 kts 55°
2026-04-20 15:33 43.35199 77.03913 2224 ft 50 kts 56°
2026-04-20 15:33 43.35326 77.04172 2225 ft 27 kts 55°
2026-04-20 15:34 43.35431 77.04383 2227 ft 27 kts 56°
2026-04-20 15:34 43.35535 77.04591 2227 ft 26 kts 56°
2026-04-20 15:34 43.35636 77.04798 2226 ft 26 kts 56°
2026-04-20 15:34 43.35738 77.05002 2224 ft 26 kts 56°
2026-04-20 15:35 43.35816 77.05152 2228 ft 12 kts 46°
2026-04-20 15:35 43.35897 77.05145 2225 ft 14 kts 330°
2026-04-20 15:35 43.35971 77.05069 2224 ft 12 kts 302°
2026-04-20 15:35 43.35950 77.04970 2224 ft 11 kts 235°
2026-04-20 15:36 43.35905 77.04881 2221 ft 12 kts 234°
2026-04-20 15:36 43.35856 77.04782 2223 ft 13 kts 236°
2026-04-20 15:36 43.35806 77.04678 2224 ft 13 kts 236°
2026-04-20 15:36 43.35754 77.04573 2225 ft 14 kts 236°
2026-04-20 15:37 43.35696 77.04457 2225 ft 15 kts 235°
2026-04-20 15:37 43.35634 77.04336 2223 ft 16 kts 237°
2026-04-20 15:37 43.35569 77.04199 2222 ft 18 kts 236°
2026-04-20 15:37 43.35496 77.04051 2224 ft 19 kts 236°
2026-04-20 15:38 43.35418 77.03894 2223 ft 21 kts 235°
2026-04-20 15:38 43.35338 77.03732 2224 ft 21 kts 236°
2026-04-20 15:38 43.35256 77.03566 2224 ft 21 kts 235°
2026-04-20 15:38 43.35172 77.03401 2225 ft 21 kts 236°
2026-04-20 15:39 43.35086 77.03227 2225 ft 22 kts 235°
2026-04-20 15:39 43.34996 77.03045 2224 ft 24 kts 236°
2026-04-20 15:39 43.34901 77.02853 2223 ft 25 kts 236°
2026-04-20 15:39 43.34812 77.02670 2226 ft 21 kts 236°
2026-04-20 15:40 43.34772 77.02528 2229 ft 15 kts 272°
2026-04-20 15:40 43.34778 77.02383 2229 ft 16 kts 273°
2026-04-20 15:40 43.34786 77.02222 2225 ft 18 kts 274°
2026-04-20 15:40 43.34794 77.02064 2228 ft 16 kts 274°
2026-04-20 15:41 43.34801 77.01909 2227 ft 17 kts 274°
2026-04-20 15:41 43.34809 77.01743 2227 ft 18 kts 274°
2026-04-20 15:41 43.34818 77.01570 2227 ft 12 kts 274°
2026-04-20 15:41 43.34815 77.01487 2227 ft 7 kts 261°
2026-04-20 15:42 43.34796 77.01425 2225 ft 7 kts 242°
2026-04-20 15:42 43.34774 77.01384 2227 ft 3 kts 230°
2026-04-20 15:42 43.34756 77.01353 2224 ft 5 kts 236°
2026-04-20 15:42 43.34746 77.01322 2227 ft 4 kts 245°
2026-04-20 15:43 43.34736 77.01294 2227 ft 1 kts 245°
2026-04-20 15:43 43.34733 77.01283 2225 ft 0 kts 244°